Location: Grossmotten
(48.5500°N, 15.3833°E)
Time: 21:36:56
(UTC+00:00)

Cosmos 2237 - Pass Details

Date: 15 November 2019
Orbit: 845 x 858 km, 70.8° (Epoch: 05 December)

Event Time Altitude Azimuth Distance (km) Brightness Sun altitude
Exits shadow 04:52:43 - 333° (NNW) 3,141 6.8 -12.1°
Reaches altitude 10° 04:54:25 10° 334° (NNW) 2,500 6.3 -11.8°
Maximum altitude 05:00:10 74° 60° (ENE) 892 4.5 -10.9°
Drops below altitude 10° 05:05:52 10° 146° (SE) 2,477 7.4 -10.0°
Sets 05:08:19 0° 148° (SSE) 3,407 8.2 -9.6°
